STARLINK-31924, 59904

Orbit data source: Space-Track

STARLINK-31924, 59904 is a payload satellite owned by SpaceX/Seattle (US) in LEO that was launched on Tue, 28 May 2024 UTC via an FALCON 9 launch vehicle from the Air Force Eastern Test Range (AFETR). Payload-class satellites include a variety of spacecraft equipped with specific instruments for various scientific and technological missions. These include communications satellites like Starlink; space stations such as the ISS; scientific satellites like the Hubble; Earth observation satellites from companies like Planet Labs, Umbra, and HawkEye 360; GPS; miniature CubeSats for education and research; and military/defense satellites.

Loading next visibility...
Identifier
59904, 2024-100V
Orbit
LEO
Country
Flag of USUS
Related business
Manufacturer
SpaceX/Seattle
Mission
Operational Commercial Communications
Bus & Motor
STARLINK V2M, Unknown motor
Mass
730 kg wet, ~700 kg dry
Launch date (UTC)
2024-05-28 (2 years ago)
Launch vehicle
FALCON 9
Launch site
Air Force Eastern Test Range (AFETR)
Object type
Payload
Rocket body
Debris
Shape & HBR
Box + 2 Pan, 17.7 m
Radar Cross Section
33.884 m², Large (>1 m²)

Expand to show TLE details & history
Last TLE update: 11 hours ago

TLE from 11 hours ago
0 STARLINK-31924
1 59904U 24100V   26126.13533422 -.00000981  00000-0 -26142-4 0  9993
2 59904  43.0034 160.8664 0001639 250.4202 109.6472 15.27572173109939
Epoch: 2026-05-06T03:14Z
TLE epoch observation values (Epoch: 2026-05-06T03:14:52.876Z)
Latitude
-0.00008°
Longitude
-111.85417°
Altitude
483.227 km
Speed
7.625 km/s
True Right ascension
10h 43m 27s
True Declination
0° 00' 00"
Sunlit
Object was in full shadow at epoch
Visualization orbit readout
Latitude
Unknown
Longitude
Unknown
Altitude
Unknown
Speed
Unknown
Apparent Right ascension
Unknown
Apparent Declination
Unknown
Sunlit
N/A
Visualization observer readout
Local Sidereal Time
21:56:30
Azimuth
Unknown
Elevation
Unknown
Doppler factor
Unknown
Orbital elements
Apogee altitude
486.142 km
Perigee altitude
483.892 km
Semi-major axis
6,863.154 km
Eccentricity
0.00016
Inclination
43.0034°
RAAN
160.8664°
Arg. of periapsis
250.4202°
True anomaly
109.66489°
Mean anomaly
109.6472°
Eccentric anomaly
109.65604°
Mean motion
3.81731 °/min
Orbital period
94.31 mins
BSTAR
-0.000026142
Loading maneuver chart data...
Computing Atmospheric mass density...
Loading historical data...
Loading historical data...
Loading historical data...
Loading historical data...
Loading historical data...
Loading historical data...
Loading historical data...

Documentation

Showing up to 5 results
|